Weather Service Report


297 
ASUS41 KAKQ 271914
RWRAKQ

REGIONAL WEATHER ROUNDUP
NATIONAL WEATHER SERVICE WAKEFIELD VA
300 PM EDT FRI MAR 27 2015

Note: "fair" indicates few or no clouds below 12,000 feet with no
significant weather and/or obstructions to visibility. * = Denotes
station may not report precipitation (e.g., rain,snow,etc.),
thunder or fog.

VAZ042-051-052>054-056-272000-
NORTHERN VIRGINIA
  
CITY           SKY/WX    TMP DP  RH WIND       PRES   REMARKS
WASH NATIONAL  CLOUDY    48  31  51 N9        29.80F                  
DULLES         CLOUDY    45  28  51 N8        29.79F                  
FORT BELVOIR   FAIR      47  31  53 N8        29.79F                  
QUANTICO       CLOUDY    47  32  56 NE12      29.79F                  
FREDERICKSBRG* FAIR      46  38  74 CALM      29.78F                  
STAFFORD*      CLOUDY    46  32  59 N3        29.83F                  
WARRENTON      CLOUDY    48  38  67 N8        29.77F                  
CULPEPER*      FAIR      48  34  57 N7        29.78F                  
MANASSAS*      CLOUDY    46  32  57 N6        29.80F                  
LEESBURG*      PTSUNNY   46  32  57 NW7G16    29.79F                  
WINCHESTER     CLOUDY    46  25  42 N7G16     29.77F                  
FRONT ROYAL*   MOCLDY    46  32  57 NW7       29.76F                  
LURAY*         CLOUDY    50  32  50 N7        29.75F                  
$$

VAZ048-049-060>072-079>083-272000-
CENTRAL AND SOUTH CENTRAL VIRGINIA
  
CITY           SKY/WX    TMP DP  RH WIND       PRES   REMARKS
RICHMOND       LGT RAIN  42  37  82 N12       29.79F                  
CHESTERFIELD*  CLOUDY    39  28  65 N7        29.81F                  
PETERSBURG*    RAIN      42  39  86 N8        29.80F                  
HANOVER        LGT RAIN  40  37  89 CALM      29.81F                  
TAPPAHANNOCK*  LGT RAIN  40  36  83 CALM      29.81S                  
QUINTON*       CLOUDY    39  37  93 N9        29.77F                  
CHARLOTTSVILLE PTSUNNY   47  38  71 CALM      29.77F                  
GORDONSVILLE*  CLOUDY    45  35  67 E5        29.77F                  
ORANGE*        PTSUNNY   46  36  66 N6        29.79F                  
LOUISA*        PTSUNNY   45  37  76 NE5       29.77F                  
BUMPASS*       CLOUDY    41  37  86 NE5       29.79F                  
FARMVILLE*     CLOUDY    44  43  97 E10       29.78F                  
CREWE*         CLOUDY    39  37  91 MISG      29.80R                  
FORT PICKETT*  CLOUDY    40  38  93 NE8       29.79R                  
CHASE CITY*    CLOUDY    42  42 100 N6        29.79S                  
CLARKSVILLE*   CLOUDY    41  39  93 NE7       29.78F                  
SOUTH HILL*    CLOUDY    41  38  91 NE6       29.83F                  
LAWRENCEVILLE* CLOUDY    41  40  96 NE5       29.77F                  
EMPORIA*       CLOUDY    41  39  93 NW13      29.79F                  
$$

VAZ088>098-272000-
SOUTHEAST VIRGINIA
  
CITY           SKY/WX    TMP DP  RH WIND       PRES   REMARKS
NORFOLK        CLOUDY    42  38  85 N18G24    29.78R                  
VIRGINIA BEACH LGT RAIN  45  40  82 N22G29    29.77F FOG              
NORFOLK NAVAL  LGT RAIN  47  40  76 N15       29.78F FOG              
WEST POINT*    CLOUDY    44  40  86 NW6       29.81F                  
SALUDA*        CLOUDY    41  38  90 N12       29.78F                  
NEWPORT NEWS   LGT RAIN  46  39  76 N9        29.77F                  
LANGLEY AFB    DRIZZLE   43  39  87 N10       29.76F                  
FORT EUSTIS    CLOUDY    43  43 100 N10       29.76F                  
WILLIAMSBURG*  PTSUNNY   45  43  93 N9G17     29.79F                  
HR EXEC AP*    CLOUDY    43  39  87 N9        29.78F                  
FRANKLIN*      CLOUDY    42  40  91 N10G16    29.79F                  
WAKEFIELD      CLOUDY    43  37  79 N12       29.79F                  
$$

VAZ020-022-025-037-045-272000-
WEST CENTRAL AND SOUTHWEST VIRGINIA
  
CITY           SKY/WX    TMP DP  RH WIND       PRES   REMARKS
STAUNTON*      CLOUDY    46  30  53 E3        29.76F                  
WAYNESBORO*    CLOUDY    44  34  68 NE7       29.75F                  
HOT SPRINGS VA CLOUDY    37  26  63 W9        29.68F                  
LYNCHBURG      LGT RAIN  42  39  89 NE5       29.78F                  
DANVILLE       LGT RAIN  46  42  86 N10       29.79S                  
SOUTH BOSTON*  CLOUDY    42  39  89 N6        29.79S                  
MARTINSVILLE   CLOUDY    46  34  64 N6        29.80S                  
ROANOKE        PTSUNNY   46  30  53 N10       29.78F                  
BLACKSBURG     CLOUDY    42  29  61 NW10      29.78F                  
DUBLIN*        CLOUDY    44  29  57 N7        29.77F                  
MARION*        FAIR      44  23  44 NW17G23   29.77F                  
HILLSVILLE*    CLOUDY    38  28  67 N10       29.75S                  
RICHLANDS*     MOCLDY    39  24  54 NW9G16    29.80S                  
WISE*          PTSUNNY   37  27  65 NW7       29.83F                  
ABINGDON*      FAIR      43  27  53 N12G20    29.82S                  
$$

MDZ021>025-VAZ099-100-272000-
SOUTHERN MARYLAND AND THE DELMARVA PENINSULA
  
CITY           SKY/WX    TMP DP  RH WIND       PRES   REMARKS
PATUXENT RIVER LGT RAIN  39  34  82 N9        29.80F                  
BAY BRIDGE APT   N/A     43  36  75 CALM      29.79S                  
LEONARDTOWN    CLOUDY    37  34  87 NE3       29.81F                  
DOVER          LGT RAIN  41  38  87 W1        29.73F                  
GEORGETOWN     LGT RAIN  39  35  86 N8        29.79S                  
EASTON         LGT RAIN  41  39  93 CALM      29.83S                  
CAMBRIDGE      FAIR      41  36  81 CALM      29.79S                  
SALISBURY      LGT RAIN  39  37  92 NW10      29.78R                  
OCEAN CITY     LGT RAIN  39  37  92 N10G17    29.78F                  
WALLOPS ISLAND LGT RAIN  41  38  89 N10       29.77F                  
ACCOMACK*      LGT RAIN  41  37  87 N8G18     29.77F                  
$$

NCZ012>017-030>032-272000-
NORTH CENTRAL AND EASTERN NORTH CAROLINA
  
CITY           SKY/WX    TMP DP  RH WIND       PRES   REMARKS
ROANOKE RAPIDS CLOUDY    43  41  93 NE13G20   29.74F                  
RALEIGH        CLOUDY    46  41  82 NE14      29.76S                  
ELIZABETH CITY CLOUDY    45  42  89 N21G28    29.75R                  
AHOSKIE*       CLOUDY    43  40  88 N15G22    29.76F                  
EDENTON*       RAIN      45  42  90 N9        29.76S                  
CURRITUCK*     RAIN      45  42  89 N15G24    29.76F                  
KILL DEVIL HLS LGT RAIN  42  42  97 N10G20    29.72F                  
MANTEO         LGT RAIN  43  42  97 NE22G28   29.72F                  
CAPE HATTERAS  LGT RAIN  45  43  93 N17G32    29.71R                  
TARBORO*       CLOUDY    46  42  88 N7        29.75S                  
GOLDSBORO      LGT RAIN  46  46 100 N12G17    29.70R                  
WASHINGTON     LGT RAIN  46  44  93 NE10G16   29.71F                  
GREENVILLE     CLOUDY    46  45  93 NE13G20   29.75F                  
NEW BERN       LGT RAIN  48  44  86 NE14      29.71F                  
WILMINGTON     LGT RAIN  54  51  90 VRB6      29.67S                  
$$

VAZ048-272000-
ELSEWHERE
  
CITY           SKY/WX    TMP DP  RH WIND       PRES   REMARKS
HARRISBURG PA  PTSUNNY   47  25  42 NW16      29.75F                  
BALTIMORE      CLOUDY    46  29  51 NW6       29.77S                  
ANNAPOLIS      PTSUNNY   44  37  76 CALM      29.78F                  
ANDREWS AFB    FAIR      45  33  64 N9        29.78S                  
PHILADELPHIA   CLOUDY    46  30  53 N12G20    29.75F                  
HENDERSON NC   LGT RAIN  43  40  90 NE8       29.77R                  
GREENSBORO     CLOUDY    45  38  76 VRB6      29.76F                  
ROCKY MOUNT    LGT RAIN  46  43  89 NE13      29.73F                  
$$

VAZ100-272000-
MARINE
  
STATION/POSITION TIME  TEMP    WIND        PRES    WAVE   SWELL
                       AIR SEA DIR/SP/G            HT/PER HT/PER
                 (UTC) (F)     (DEG/KT/KT) (MB)    (FT/S) (FT/S)
BRANDYWINE LGT   1800   38 40  350/ 14/ 17 1008.3F
CAPE MAY NJ      1800   39 44  330/ 12/ 16 1007.8F
LEWES DE         1800   39 43  340/ 16/ 18 1008.4R
15NM E FENWICK I 1850   38 40              1007.1R   5/11
OCEAN-CITY-INLET 1800   39 40  360/ 12/ 15 1008.3R
WACHAPREAGUE VA  1800   42 49   10/  5/ 11 1008.4R
THOMAS POINT MD  1900                        N/A
COVE POINT MD    1800   38      30/ 12/ 14 1009.2R
SOLOMONS ISLAND  1800      44                N/A
BISHOPS HEAD MD  1800   40 48  360/  8/ 12 1008.0F
PINEY POINT MD   1800           10/  8/  8   N/A
CAMBRIDGE MD     1800   39 45   30/  6/  9 1008.6F
LEWISETTA VA     1800   40 47              1009.3F
RAPPAHANNOCK LGT 1800          340/ 19/ 20 1009.0R
STINGRAY PT      1900   41 44   10/ 14/ 17   N/A     2/ 3
YORK RVR RNG VA  1800   42      20/ 19/ 22 1007.4F
YORKTOWN VA      1800      48  360/ 13/ 16 1008.3F
DOMINION TERM VA 1800   43      20/ 10/ 13 1008.5F
KIPTOPEKE VA     1800      49   20/ 12/ 14   N/A
CHES BAY BRIDGE  1800   41 44  350/ 18/ 22 1008.1F
CAPE HENRY VA    1800   42     350/ 18/ 22 1007.1R
CHESAPEAKE LGHT  1800   41     350/ 19/ 20 1009.0R
WILLOUBY STN VA  1800           10/ 13/ 14   N/A
S CRANEY ISL VA  1800           20/ 18/ 22 1008.1F
CAPE HENRY BUOY  1828      41                N/A     5/ 6   2/11
1ST LANDING BUOY 1900   41     350/ 19/ 23 1008.1F   3/ 4
OFFSHORE WE BUOY 1811      41                N/A     6/ 6   3/ 8
64NM E OF VA BCH 1850   44 52  350/ 27/ 31 1005.2R  10/ 8
DUCK PIER NC     1800   42 42  360/ 20/ 22 1006.5R
44056 DUCK FRF   1811      42                N/A     6/ 6   2/11
OREGON INLET NC  1800   42 58  350/ 17/ 23 1006.8R
HATTERAS NC      1800      60   20/ 23/ 26 1006.0R
CAPE LOOKOUT NC  1900   49      30/ 23/ 27 1005.0R
$$

Return to Home page


Western Regional Climate Center, wrcc@dri.edu